Meteo pe oră la Dzietrzniki

Astăzi, 2 Martie, Marţi

Timp Temperatura Precipitaţii Vânt Presiune Umiditate
00:00 +1°C° 0 mm 2 m/s 756 mmHg 93%
01:00 -1°C° 0 mm 2 m/s 756 mmHg 94%
02:00 -1°C° 0 mm 2 m/s 756 mmHg 94%
03:00 -1°C° 0 mm 2 m/s 756 mmHg 94%
04:00 -1°C° 0 mm 2 m/s 756 mmHg 94%
05:00 -1°C° 0 mm 2 m/s 756 mmHg 93%
06:00 0°C° 0 mm 3 m/s 756 mmHg 92%
07:00 0°C° 0 mm 3 m/s 756 mmHg 91%
08:00 +1°C° 0 mm 3 m/s 756 mmHg 84%
09:00 +3°C° 0 mm 3 m/s 756 mmHg 77%
10:00 +5°C° 0 mm 3 m/s 755 mmHg 69%
11:00 +7°C° 0 mm 3 m/s 755 mmHg 65%
12:00 +9°C° 0 mm 3 m/s 755 mmHg 61%
13:00 +10°C° 0 mm 3 m/s 755 mmHg 57%
14:00 +10°C° 0 mm 3 m/s 755 mmHg 58%
15:00 +10°C° 0 mm 3 m/s 755 mmHg 58%
16:00 +10°C° 0 mm 3 m/s 754 mmHg 59%
17:00 +9°C° 0 mm 2 m/s 754 mmHg 64%
18:00 +7°C° 0 mm 2 m/s 755 mmHg 70%
19:00 +6°C° 0 mm 2 m/s 755 mmHg 76%
20:00 +5°C° 0 mm 2 m/s 755 mmHg 78%
21:00 +6°C° 0 mm 1 m/s 755 mmHg 81%
22:00 +5°C° 0 mm 1 m/s 755 mmHg 83%
23:00 +5°C° 0 mm 1 m/s 755 mmHg 83%

Mâine, 3 Martie, Miercuri

Timp Temperatura Precipitaţii Vânt Presiune Umiditate
00:00 +4°C° 0 mm 0 m/s 755 mmHg 84%
01:00 +3°C° 0 mm 0 m/s 755 mmHg 84%
02:00 +3°C° 0 mm 0 m/s 754 mmHg 84%
03:00 +4°C° 0 mm 1 m/s 754 mmHg 84%
04:00 +3°C° 0 mm 1 m/s 753 mmHg 84%
05:00 +3°C° 0 mm 1 m/s 753 mmHg 85%
06:00 +3°C° 0 mm 1 m/s 753 mmHg 86%
07:00 +3°C° 0 mm 1 m/s 753 mmHg 86%
08:00 +5°C° 0 mm 1 m/s 753 mmHg 79%
09:00 +7°C° 0 mm 1 m/s 753 mmHg 72%
10:00 +8°C° 0 mm 1 m/s 752 mmHg 65%
11:00 +10°C° 0 mm 1 m/s 752 mmHg 60%
12:00 +11°C° 0 mm 1 m/s 752 mmHg 55%
13:00 +13°C° 0 mm 1 m/s 751 mmHg 50%
14:00 +13°C° 0 mm 1 m/s 750 mmHg 49%
15:00 +13°C° 0 mm 2 m/s 750 mmHg 49%
16:00 +13°C° 0 mm 2 m/s 749 mmHg 49%
17:00 +12°C° 0 mm 2 m/s 749 mmHg 53%
18:00 +9°C° 0 mm 2 m/s 749 mmHg 57%
19:00 +8°C° 0 mm 2 m/s 748 mmHg 61%
20:00 +7°C° 0 mm 3 m/s 748 mmHg 65%
21:00 +7°C° 0 mm 3 m/s 747 mmHg 68%
22:00 +5°C° 0 mm 3 m/s 747 mmHg 72%
23:00 +4°C° 0 mm 4 m/s 746 mmHg 74%

Poimâine, 4 Martie, Joi

Timp Temperatura Precipitaţii Vânt Presiune Umiditate
00:00 +4°C° 0 mm 4 m/s 746 mmHg 77%
01:00 +4°C° 0 mm 4 m/s 745 mmHg 79%
02:00 +4°C° 0 mm 4 m/s 745 mmHg 78%
03:00 +4°C° 0 mm 4 m/s 744 mmHg 78%
04:00 +4°C° 0 mm 4 m/s 744 mmHg 77%
05:00 +3°C° 0 mm 4 m/s 743 mmHg 80%
06:00 +3°C° 0 mm 4 m/s 743 mmHg 82%
07:00 +3°C° 0 mm 4 m/s 743 mmHg 84%
08:00 +5°C° 0 mm 5 m/s 743 mmHg 80%
09:00 +5°C° 0 mm 6 m/s 742 mmHg 76%
10:00 +7°C° 0 mm 6 m/s 742 mmHg 72%
11:00 +8°C° 0 mm 6 m/s 742 mmHg 67%
12:00 +9°C° 0 mm 6 m/s 741 mmHg 62%
13:00 +10°C° 0 mm 6 m/s 741 mmHg 57%
14:00 +10°C° 0 mm 6 m/s 740 mmHg 57%
15:00 +9°C° 0 mm 6 m/s 740 mmHg 58%
16:00 +9°C° 0 mm 6 m/s 739 mmHg 58%
17:00 +7°C° 0.3 mm 5 m/s 739 mmHg 67%
18:00 +6°C° 0.3 mm 5 m/s 740 mmHg 75%
19:00 +3°C° 0.3 mm 5 m/s 740 mmHg 84%
20:00 +4°C° 1 mm 4 m/s 740 mmHg 87%
21:00 +3°C° 1 mm 4 m/s 740 mmHg 90%
22:00 +2°C° 1 mm 3 m/s 740 mmHg 93%
23:00 +1°C° 0.2 mm 3 m/s 740 mmHg 93%

5 Martie, Vineri

Timp Temperatura Precipitaţii Vânt Presiune Umiditate
00:00 +1°C° 0.2 mm 3 m/s 740 mmHg 93%
01:00 +2°C° 0.2 mm 2 m/s 740 mmHg 93%
02:00 0°C° 0 mm 3 m/s 740 mmHg 90%
03:00 -1°C° 0 mm 4 m/s 740 mmHg 86%
04:00 -2°C° 0 mm 4 m/s 740 mmHg 83%
05:00 -2°C° 0.2 mm 4 m/s 741 mmHg 82%
06:00 -2°C° 0.2 mm 4 m/s 741 mmHg 82%
07:00 -3°C° 0.2 mm 4 m/s 742 mmHg 81%
08:00 -2°C° 0 mm 5 m/s 742 mmHg 76%
09:00 -2°C° 0 mm 5 m/s 743 mmHg 71%
10:00 -1°C° 0 mm 5 m/s 743 mmHg 66%
11:00 -1°C° 0 mm 5 m/s 743 mmHg 60%
12:00 0°C° 0 mm 5 m/s 744 mmHg 55%
13:00 +1°C° 0 mm 5 m/s 744 mmHg 49%
14:00 0°C° 0 mm 5 m/s 744 mmHg 48%
15:00 0°C° 0 mm 5 m/s 745 mmHg 46%
16:00 0°C° 0 mm 4 m/s 745 mmHg 45%
17:00 0°C° 0 mm 4 m/s 746 mmHg 50%
18:00 0°C° 0 mm 3 m/s 746 mmHg 55%
19:00 -1°C° 0 mm 2 m/s 747 mmHg 60%
20:00 -1°C° 0.1 mm 2 m/s 747 mmHg 61%
21:00 -1°C° 0.1 mm 3 m/s 748 mmHg 63%
22:00 -1°C° 0.1 mm 3 m/s 748 mmHg 65%
23:00 -2°C° 0 mm 3 m/s 749 mmHg 68%

6 Martie, Sâmbătă

Timp Temperatura Precipitaţii Vânt Presiune Umiditate
00:00 -3°C° 0 mm 4 m/s 749 mmHg 71%
01:00 -3°C° 0 mm 4 m/s 750 mmHg 74%
02:00 -4°C° 0 mm 4 m/s 750 mmHg 72%
03:00 -4°C° 0 mm 4 m/s 750 mmHg 71%
04:00 -5°C° 0 mm 5 m/s 751 mmHg 70%
05:00 -4°C° 0 mm 4 m/s 751 mmHg 66%
06:00 -4°C° 0 mm 4 m/s 751 mmHg 63%
07:00 -4°C° 0 mm 4 m/s 752 mmHg 59%
08:00 -3°C° 0 mm 4 m/s 752 mmHg 55%
09:00 -2°C° 0 mm 4 m/s 752 mmHg 51%
10:00 -1°C° 0 mm 5 m/s 753 mmHg 47%
11:00 -1°C° 0 mm 5 m/s 753 mmHg 44%
12:00 0°C° 0 mm 5 m/s 753 mmHg 41%
13:00 0°C° 0 mm 4 m/s 752 mmHg 38%
14:00 0°C° 0 mm 4 m/s 752 mmHg 39%
15:00 0°C° 0 mm 4 m/s 752 mmHg 40%
16:00 0°C° 0 mm 4 m/s 752 mmHg 41%
17:00 -1°C° 0 mm 4 m/s 752 mmHg 45%
18:00 -1°C° 0 mm 3 m/s 752 mmHg 48%
19:00 -1°C° 0 mm 3 m/s 752 mmHg 52%
20:00 -3°C° 0 mm 4 m/s 751 mmHg 52%
21:00 -3°C° 0 mm 4 m/s 751 mmHg 53%
22:00 -4°C° 0 mm 5 m/s 751 mmHg 53%
23:00 -4°C° 0 mm 5 m/s 751 mmHg 54%

7 Martie, Duminică

Timp Temperatura Precipitaţii Vânt Presiune Umiditate
00:00 -4°C° 0 mm 5 m/s 750 mmHg 54%
01:00 -4°C° 0 mm 6 m/s 750 mmHg 55%
02:00 -4°C° 0 mm 6 m/s 749 mmHg 55%
03:00 -4°C° 0 mm 6 m/s 749 mmHg 56%
04:00 -4°C° 0 mm 6 m/s 749 mmHg 57%
05:00 -3°C° 0 mm 6 m/s 748 mmHg 58%
06:00 -3°C° 0 mm 7 m/s 748 mmHg 59%
07:00 -3°C° 0 mm 7 m/s 748 mmHg 60%
08:00 -3°C° 0 mm 7 m/s 747 mmHg 60%
09:00 -2°C° 0 mm 7 m/s 747 mmHg 60%
10:00 -1°C° 0 mm 8 m/s 747 mmHg 60%
11:00 -1°C° 0 mm 8 m/s 746 mmHg 57%
12:00 0°C° 0 mm 8 m/s 746 mmHg 55%
13:00 +1°C° 0 mm 8 m/s 745 mmHg 52%
14:00 +2°C° 0 mm 7 m/s 744 mmHg 53%
15:00 +2°C° 0 mm 7 m/s 744 mmHg 53%
16:00 +2°C° 0 mm 7 m/s 743 mmHg 54%
17:00 +1°C° 0 mm 6 m/s 743 mmHg 59%
18:00 0°C° 0 mm 5 m/s 742 mmHg 63%
19:00 -1°C° 0 mm 5 m/s 742 mmHg 68%
20:00 -2°C° 0 mm 5 m/s 742 mmHg 76%
21:00 -3°C° 0 mm 6 m/s 742 mmHg 83%
22:00 -3°C° 0 mm 6 m/s 742 mmHg 90%
23:00 -3°C° 0.2 mm 6 m/s 742 mmHg 92%
Arată mai mult

Formular de consimțământ

Meteoprog și furnizorii noștri de servicii pot stoca și accesa date personale, precum cookies, identificatori de dispozitiv sau alte tehnologii similare pe dispozitivul dumneavoastră și procesa astfel de date pentru a personaliza conținutul și reclamele, dar și pentru a oferi caracteristici de social media și pentru a analiza traficul.

  • Stocarea și/sau accesarea informațiilor pe dispozitivul dumneavoastră

    Cookies, identificatori de dispozitiv sau alte informații pot fi stocate sau accesate pe dispozitiv în scopurile indicate mai sus.

  • Reclame și conținut personalizat, evaluarea reclamelor și a conținutului, informații despre audiențe și dezvoltarea produselor

    Reclamele și conținutul pot fi personalizate pe baza unui profil. Pot fi adăugate date suplimentare pentru a personaliza mai bine reclamele și conținutul. Performanța reclamelor și conținutului poate fi măsurată. Pot fi obținute informații despre utilizatorii care au văzut reclamele și conținutul. Aceste date pot fi utilizate pentru a dezvolta sau îmbunătăți experiența utilizatorilor, sistemele și software-ul.

Dând clic pe ‘Sunt de acord’, permiteți utilizarea cookie-urilor menționate, a identificatorilor de dispozitiv, balizelor web sau altor tehnologii similare. Setările pot fi modificate din browser-ul dispozitivului dumneavoastră.

În anumite scopuri, interesele legitime pot prima asupra consimțământului. Puteți citi mai multe informații în acest sens în Politica privind Confidențialitatea Datelor și Cookie.